2017-008CC

Last updated on Thu Mar 02 2017 00:15:03 GMT+0000 (Greenwich Mean Time)

1 42022U 17008CC 17060.60674764 .00001597 00000-0 73861-4 0 9991 2 42022 97.5139 122.2173 0007851 204.2681 155.8186 15.21605754 1032
UTC large
Height (km)
Speed (km/s)
/
Latitude / Longitude
Inclination (degrees)
Orbital Period (minutes)
Azimuth
Elevation
Range (km)
Doppler Factor

Next 0 passes for location: London (51.5072 / 0.1276)

Sorry there are no passes over London.